LNI787 WAAA-WARR

Flight info

Callsign LNI787
Flight time 1h 16m
Altitude 34000
Route ENDOG W32 SUSIL W32N KOLTA
Aircraft B738/M-SDE2E3FGHIRWXY/LB1

Departure

Time 2026-05-08 10:17
Airport Sultan Hasanuddin International Airport (WAAA)

Arrival

Time 2026-05-08 11:34
Airport Juanda International Airport (WARR)
Time Latitude Longitude Altitude Speed Heading
2026-05-08 09:49 -5.08160 119.54719 40 ft 0 kts 120°
2026-05-08 10:08 -5.08159 119.54717 40 ft 2 kts 120°
2026-05-08 10:08 -5.08146 119.54695 40 ft 4 kts 120°
2026-05-08 10:08 -5.08131 119.54673 40 ft 4 kts 138°
2026-05-08 10:09 -5.08114 119.54665 40 ft 3 kts 207°
2026-05-08 10:09 -5.08112 119.54666 40 ft 0 kts 210°
2026-05-08 10:12 -5.08122 119.54660 40 ft 3 kts 210°
2026-05-08 10:12 -5.08142 119.54648 39 ft 4 kts 210°
2026-05-08 10:12 -5.08176 119.54628 40 ft 8 kts 210°
2026-05-08 10:12 -5.08235 119.54593 40 ft 12 kts 210°
2026-05-08 10:13 -5.08317 119.54546 40 ft 15 kts 210°
2026-05-08 10:13 -5.08410 119.54491 40 ft 17 kts 210°
2026-05-08 10:13 -5.08486 119.54448 40 ft 9 kts 202°
2026-05-08 10:13 -5.08533 119.54463 39 ft 7 kts 127°
2026-05-08 10:14 -5.08558 119.54505 40 ft 7 kts 120°
2026-05-08 10:14 -5.08598 119.54544 41 ft 9 kts 163°
2026-05-08 10:14 -5.08661 119.54528 41 ft 11 kts 209°
2026-05-08 10:14 -5.08735 119.54485 40 ft 14 kts 210°
2026-05-08 10:15 -5.08829 119.54431 39 ft 17 kts 210°
2026-05-08 10:15 -5.08941 119.54366 41 ft 20 kts 210°
2026-05-08 10:15 -5.09063 119.54296 40 ft 15 kts 210°
2026-05-08 10:15 -5.09136 119.54278 40 ft 11 kts 166°
2026-05-08 10:16 -5.09181 119.54322 40 ft 8 kts 120°
2026-05-08 10:16 -5.09214 119.54377 40 ft 10 kts 120°
2026-05-08 10:16 -5.09214 119.54414 41 ft 5 kts 47°
2026-05-08 10:16 -5.09180 119.54433 41 ft 7 kts 29°
2026-05-08 10:17 -5.09046 119.54510 43 ft 53 kts 30°
2026-05-08 10:17 -5.08512 119.54819 40 ft 122 kts 30°
2026-05-08 10:17 -5.07597 119.55344 86 ft 175 kts 31°
2026-05-08 10:17 -5.06532 119.55982 827 ft 174 kts 31°
2026-05-08 10:18 -5.05437 119.56483 1574 ft 180 kts
2026-05-08 10:18 -5.04088 119.56344 1944 ft 211 kts 354°
2026-05-08 10:18 -5.02539 119.56190 2162 ft 236 kts 358°
2026-05-08 10:18 -5.00854 119.56084 2454 ft 257 kts 358°
2026-05-08 10:19 -4.99023 119.55977 2999 ft 269 kts 354°
2026-05-08 10:19 -4.97255 119.55285 3793 ft 278 kts 325°
2026-05-08 10:19 -4.95995 119.53786 4585 ft 288 kts 294°
2026-05-08 10:20 -4.95551 119.49810 6205 ft 293 kts 271°
2026-05-08 10:20 -4.95526 119.47755 6979 ft 296 kts 270°
2026-05-08 10:20 -4.95505 119.45676 7763 ft 298 kts 270°
2026-05-08 10:20 -4.95479 119.43620 8541 ft 300 kts 271°
2026-05-08 10:21 -4.95445 119.41507 9317 ft 303 kts 271°
2026-05-08 10:21 -4.95404 119.39385 10054 ft 306 kts 271°
2026-05-08 10:21 -4.95653 119.37230 10428 ft 322 kts 251°
2026-05-08 10:21 -4.96501 119.35068 10615 ft 344 kts 246°
2026-05-08 10:22 -4.97511 119.32821 10926 ft 358 kts 245°
2026-05-08 10:22 -4.98551 119.30556 11484 ft 363 kts 245°
2026-05-08 10:22 -4.99603 119.28233 12162 ft 365 kts 245°
2026-05-08 10:22 -5.00646 119.25891 12821 ft 368 kts 245°
2026-05-08 10:23 -5.01681 119.23527 13440 ft 372 kts 245°
2026-05-08 10:23 -5.02702 119.21169 14000 ft 374 kts 246°
2026-05-08 10:23 -5.03740 119.18749 14540 ft 378 kts 246°
2026-05-08 10:23 -5.04780 119.16314 15092 ft 380 kts 246°
2026-05-08 10:24 -5.05820 119.13872 15684 ft 381 kts 246°
2026-05-08 10:24 -5.06850 119.11449 16244 ft 383 kts 246°
2026-05-08 10:24 -5.07901 119.08974 16790 ft 386 kts 246°
2026-05-08 10:24 -5.08960 119.06479 17319 ft 388 kts 246°
2026-05-08 10:25 -5.10023 119.03976 17845 ft 391 kts 246°
2026-05-08 10:25 -5.11080 119.01484 18314 ft 394 kts 246°
2026-05-08 10:25 -5.12163 118.98934 18755 ft 396 kts 246°
2026-05-08 10:25 -5.13249 118.96373 19174 ft 399 kts 246°
2026-05-08 10:26 -5.14340 118.93802 19613 ft 402 kts 246°
2026-05-08 10:26 -5.15425 118.91245 20017 ft 404 kts 246°
2026-05-08 10:26 -5.16531 118.88637 20418 ft 407 kts 247°
2026-05-08 10:26 -5.17645 118.86009 20818 ft 410 kts 247°
2026-05-08 10:27 -5.18766 118.83367 21220 ft 413 kts 247°
2026-05-08 10:27 -5.19898 118.80697 21611 ft 415 kts 247°
2026-05-08 10:27 -5.21022 118.78045 21984 ft 418 kts 247°
2026-05-08 10:27 -5.22168 118.75342 22366 ft 421 kts 247°
2026-05-08 10:28 -5.23319 118.72626 22729 ft 424 kts 247°
2026-05-08 10:28 -5.24480 118.69886 23093 ft 426 kts 247°
2026-05-08 10:28 -5.25642 118.67144 23441 ft 429 kts 247°
2026-05-08 10:28 -5.26804 118.64402 23732 ft 430 kts 247°
2026-05-08 10:29 -5.27978 118.61630 24059 ft 432 kts 247°
2026-05-08 10:29 -5.29155 118.58853 24363 ft 433 kts 247°
2026-05-08 10:29 -5.30325 118.56089 24660 ft 435 kts 247°
2026-05-08 10:29 -5.31514 118.53283 24957 ft 436 kts 247°
2026-05-08 10:30 -5.32699 118.50482 25258 ft 438 kts 247°
2026-05-08 10:30 -5.33894 118.47661 25536 ft 439 kts 247°
2026-05-08 10:30 -5.35097 118.44819 25807 ft 441 kts 247°
2026-05-08 10:30 -5.36283 118.42016 26087 ft 443 kts 247°
2026-05-08 10:31 -5.37495 118.39152 26373 ft 444 kts 247°
2026-05-08 10:31 -5.38703 118.36297 26628 ft 446 kts 247°
2026-05-08 10:31 -5.39917 118.33426 26883 ft 448 kts 247°
2026-05-08 10:31 -5.41136 118.30544 27144 ft 449 kts 246°
2026-05-08 10:32 -5.42364 118.27640 27377 ft 451 kts 246°
2026-05-08 10:32 -5.43577 118.24771 27623 ft 453 kts 246°
2026-05-08 10:32 -5.44809 118.21858 27869 ft 454 kts 246°
2026-05-08 10:32 -5.46051 118.18918 28093 ft 456 kts 246°
2026-05-08 10:33 -5.47290 118.15986 28356 ft 457 kts 246°
2026-05-08 10:33 -5.48532 118.13047 28610 ft 457 kts 246°
2026-05-08 10:33 -5.49779 118.10097 28817 ft 459 kts 246°
2026-05-08 10:33 -5.51030 118.07136 29044 ft 461 kts 246°
2026-05-08 10:34 -5.52266 118.04207 29278 ft 461 kts 246°
2026-05-08 10:34 -5.53525 118.01228 29480 ft 463 kts 246°
2026-05-08 10:34 -5.54785 117.98243 29665 ft 465 kts 246°
2026-05-08 10:34 -5.56056 117.95232 29875 ft 466 kts 246°
2026-05-08 10:35 -5.57310 117.92263 30046 ft 467 kts 246°
2026-05-08 10:35 -5.58580 117.89251 30212 ft 468 kts 246°
2026-05-08 10:35 -5.59851 117.86237 30426 ft 468 kts 246°
2026-05-08 10:35 -5.61122 117.83225 30656 ft 468 kts 246°
2026-05-08 10:36 -5.62394 117.80209 30893 ft 467 kts 246°
2026-05-08 10:36 -5.63663 117.77200 31126 ft 467 kts 246°
2026-05-08 10:36 -5.64913 117.74235 31389 ft 466 kts 246°
2026-05-08 10:36 -5.66175 117.71242 31670 ft 465 kts 246°
2026-05-08 10:37 -5.67437 117.68248 31937 ft 464 kts 246°
2026-05-08 10:37 -5.68698 117.65255 32151 ft 464 kts 246°
2026-05-08 10:37 -5.69957 117.62266 32372 ft 464 kts 246°
2026-05-08 10:37 -5.71217 117.59277 32629 ft 464 kts 246°
2026-05-08 10:38 -5.72461 117.56324 32893 ft 463 kts 246°
2026-05-08 10:38 -5.73716 117.53345 33137 ft 463 kts 247°
2026-05-08 10:38 -5.74976 117.50352 33369 ft 463 kts 247°
2026-05-08 10:38 -5.76216 117.47406 33590 ft 463 kts 247°
2026-05-08 10:39 -5.77473 117.44420 33823 ft 462 kts 247°
2026-05-08 10:39 -5.79987 117.38447 33841 ft 464 kts 247°
2026-05-08 10:40 -5.82490 117.32497 33840 ft 463 kts 247°
2026-05-08 10:40 -5.85002 117.26521 33843 ft 463 kts 247°
2026-05-08 10:41 -5.87490 117.20602 33841 ft 462 kts 248°
2026-05-08 10:41 -5.89727 117.14536 33848 ft 462 kts 251°
2026-05-08 10:42 -5.91418 117.09455 33843 ft 462 kts 252°
2026-05-08 10:42 -5.93796 117.02323 33842 ft 462 kts 251°
2026-05-08 10:43 -5.95873 116.96206 33843 ft 462 kts 251°
2026-05-08 10:43 -5.97611 116.91124 33844 ft 463 kts 251°
2026-05-08 10:44 -5.99706 116.84997 33850 ft 463 kts 251°
2026-05-08 10:44 -6.01792 116.78892 33844 ft 464 kts 251°
2026-05-08 10:45 -6.03893 116.72739 33848 ft 464 kts 251°
2026-05-08 10:45 -6.05992 116.66585 33848 ft 465 kts 251°
2026-05-08 10:46 -6.08078 116.60469 33847 ft 465 kts 251°
2026-05-08 10:46 -6.10175 116.54318 33847 ft 465 kts 251°
2026-05-08 10:47 -6.12274 116.48159 33845 ft 465 kts 251°
2026-05-08 10:47 -6.14356 116.42044 33847 ft 464 kts 251°
2026-05-08 10:48 -6.16450 116.35895 33844 ft 464 kts 251°
2026-05-08 10:48 -6.18532 116.29786 33842 ft 464 kts 251°
2026-05-08 10:49 -6.20630 116.23652 33842 ft 463 kts 251°
2026-05-08 10:49 -6.22715 116.17555 33849 ft 463 kts 251°
2026-05-08 10:50 -6.24811 116.11419 33843 ft 463 kts 251°
2026-05-08 10:50 -6.26903 116.05289 33849 ft 463 kts 251°
2026-05-08 10:51 -6.28978 115.99207 33846 ft 463 kts 251°
2026-05-08 10:51 -6.31069 115.93074 33851 ft 462 kts 251°
2026-05-08 10:52 -6.33144 115.86988 33849 ft 462 kts 251°
2026-05-08 10:52 -6.35232 115.80861 33850 ft 462 kts 251°
2026-05-08 10:53 -6.37320 115.74730 33849 ft 463 kts 251°
2026-05-08 10:53 -6.39392 115.68645 33851 ft 463 kts 251°
2026-05-08 10:54 -6.41480 115.62508 33849 ft 463 kts 251°
2026-05-08 10:54 -6.43554 115.56410 33848 ft 463 kts 251°
2026-05-08 10:55 -6.45640 115.50276 33849 ft 463 kts 251°
2026-05-08 10:55 -6.47714 115.44171 33849 ft 463 kts 251°
2026-05-08 10:56 -6.49793 115.38051 33845 ft 463 kts 251°
2026-05-08 10:56 -6.51877 115.31915 33850 ft 463 kts 251°
2026-05-08 10:57 -6.53947 115.25815 33848 ft 463 kts 251°
2026-05-08 10:57 -6.56526 115.16472 33850 ft 462 kts 264°
2026-05-08 10:58 -6.56379 115.10012 33857 ft 462 kts 274°
2026-05-08 10:58 -6.55825 115.03616 33845 ft 462 kts 275°
2026-05-08 10:59 -6.55283 114.97154 33846 ft 462 kts 274°
2026-05-08 10:59 -6.54781 114.90710 33848 ft 462 kts 274°
2026-05-08 11:00 -6.54295 114.84293 33847 ft 462 kts 274°
2026-05-08 11:00 -6.53807 114.77830 33848 ft 462 kts 274°
2026-05-08 11:01 -6.53319 114.71400 33848 ft 463 kts 274°
2026-05-08 11:01 -6.52827 114.64939 33845 ft 463 kts 274°
2026-05-08 11:02 -6.52090 114.55275 33838 ft 463 kts 274°
2026-05-08 11:03 -6.51596 114.48816 33839 ft 463 kts 274°
2026-05-08 11:03 -6.51104 114.42395 33844 ft 463 kts 274°
2026-05-08 11:04 -6.50609 114.35942 33845 ft 463 kts 274°
2026-05-08 11:04 -6.50112 114.29476 33841 ft 463 kts 274°
2026-05-08 11:05 -6.49615 114.23023 33842 ft 463 kts 274°
2026-05-08 11:05 -6.49116 114.16561 33840 ft 463 kts 274°
2026-05-08 11:06 -6.48620 114.10135 33840 ft 463 kts 274°
2026-05-08 11:06 -6.48120 114.03671 33840 ft 462 kts 274°
2026-05-08 11:07 -6.47622 113.97245 33838 ft 462 kts 274°
2026-05-08 11:07 -6.47119 113.90760 33258 ft 468 kts 274°
2026-05-08 11:07 -6.46868 113.87531 32838 ft 461 kts 274°
2026-05-08 11:08 -6.46619 113.84322 32356 ft 458 kts 273°
2026-05-08 11:08 -6.46714 113.81180 31871 ft 453 kts 259°
2026-05-08 11:08 -6.47376 113.78096 31457 ft 448 kts 256°
2026-05-08 11:08 -6.48109 113.75055 30987 ft 446 kts 255°
2026-05-08 11:09 -6.48851 113.72029 30523 ft 443 kts 255°
2026-05-08 11:09 -6.49578 113.69017 30064 ft 441 kts 256°
2026-05-08 11:09 -6.50277 113.66050 29551 ft 439 kts 256°
2026-05-08 11:09 -6.50965 113.63068 29056 ft 436 kts 256°
2026-05-08 11:10 -6.51639 113.60108 28575 ft 432 kts 256°
2026-05-08 11:10 -6.52303 113.57169 28097 ft 428 kts 256°
2026-05-08 11:10 -6.52954 113.54283 27645 ft 425 kts 256°
2026-05-08 11:10 -6.53605 113.51391 27193 ft 422 kts 256°
2026-05-08 11:11 -6.54253 113.48517 26742 ft 419 kts 257°
2026-05-08 11:11 -6.54897 113.45660 26292 ft 416 kts 257°
2026-05-08 11:11 -6.55538 113.42818 25838 ft 414 kts 257°
2026-05-08 11:11 -6.56166 113.40031 25386 ft 412 kts 257°
2026-05-08 11:12 -6.56799 113.37224 24930 ft 411 kts 257°
2026-05-08 11:12 -6.57430 113.34427 24481 ft 409 kts 257°
2026-05-08 11:12 -6.58058 113.31639 24032 ft 408 kts 257°
2026-05-08 11:12 -6.58684 113.28859 23581 ft 407 kts 257°
2026-05-08 11:13 -6.59301 113.26118 23082 ft 406 kts 257°
2026-05-08 11:13 -6.59924 113.23352 22610 ft 403 kts 257°
2026-05-08 11:13 -6.60542 113.20608 22157 ft 400 kts 257°
2026-05-08 11:13 -6.61156 113.17878 21712 ft 397 kts 257°
2026-05-08 11:14 -6.61767 113.15172 21288 ft 394 kts 257°
2026-05-08 11:14 -6.62364 113.12532 20879 ft 391 kts 257°
2026-05-08 11:14 -6.62969 113.09856 20454 ft 388 kts 257°
2026-05-08 11:14 -6.63563 113.07225 20049 ft 385 kts 257°
2026-05-08 11:15 -6.64151 113.04623 19637 ft 383 kts 257°
2026-05-08 11:15 -6.64740 113.02014 19206 ft 381 kts 256°
2026-05-08 11:15 -6.65327 112.99412 18803 ft 379 kts 256°
2026-05-08 11:15 -6.65910 112.96826 18396 ft 378 kts 256°
2026-05-08 11:16 -6.66491 112.94247 17958 ft 376 kts 256°
2026-05-08 11:16 -6.67070 112.91682 17522 ft 374 kts 256°
2026-05-08 11:16 -6.67636 112.89173 17114 ft 371 kts 256°
2026-05-08 11:16 -6.68205 112.86647 16712 ft 368 kts 256°
2026-05-08 11:17 -6.68769 112.84141 16313 ft 365 kts 256°
2026-05-08 11:17 -6.69327 112.81662 15928 ft 362 kts 256°
2026-05-08 11:17 -6.69876 112.79224 15541 ft 360 kts 257°
2026-05-08 11:17 -6.70428 112.76772 15159 ft 358 kts 257°
2026-05-08 11:18 -6.70976 112.74332 14777 ft 356 kts 257°
2026-05-08 11:18 -6.71521 112.71902 14383 ft 354 kts 257°
2026-05-08 11:18 -6.72057 112.69514 14008 ft 353 kts 257°
2026-05-08 11:18 -6.72600 112.67096 13562 ft 353 kts 257°
2026-05-08 11:19 -6.73141 112.64683 13120 ft 352 kts 257°
2026-05-08 11:19 -6.73672 112.62311 12725 ft 350 kts 257°
2026-05-08 11:19 -6.74205 112.59935 12341 ft 347 kts 257°
2026-05-08 11:19 -6.74733 112.57578 12080 ft 341 kts 257°
2026-05-08 11:20 -6.75254 112.55253 11727 ft 339 kts 257°
2026-05-08 11:20 -6.75770 112.52951 11389 ft 336 kts 257°
2026-05-08 11:20 -6.76572 112.50765 11014 ft 333 kts 236°
2026-05-08 11:20 -6.78124 112.49079 10680 ft 327 kts 213°
2026-05-08 11:21 -6.80134 112.48125 10355 ft 322 kts 193°
2026-05-08 11:21 -6.82333 112.47903 9995 ft 317 kts 174°
2026-05-08 11:21 -6.84496 112.48131 9940 ft 303 kts 171°
2026-05-08 11:21 -6.86524 112.48392 9894 ft 284 kts 171°
2026-05-08 11:22 -6.88441 112.48641 9753 ft 271 kts 171°
2026-05-08 11:22 -6.90302 112.48876 9378 ft 268 kts 171°
2026-05-08 11:22 -6.92150 112.49102 8952 ft 267 kts 171°
2026-05-08 11:22 -6.93967 112.49318 8549 ft 265 kts 171°
2026-05-08 11:23 -6.95799 112.49535 8227 ft 263 kts 172°
2026-05-08 11:23 -6.97607 112.49747 7847 ft 260 kts 171°
2026-05-08 11:23 -6.99408 112.49954 7442 ft 259 kts 172°
2026-05-08 11:23 -7.01167 112.50153 7169 ft 254 kts 172°
2026-05-08 11:24 -7.02918 112.50351 6950 ft 251 kts 172°
2026-05-08 11:24 -7.04665 112.50549 6767 ft 255 kts 172°
2026-05-08 11:24 -7.06449 112.50752 6562 ft 259 kts 172°
2026-05-08 11:24 -7.08242 112.50955 6357 ft 258 kts 172°
2026-05-08 11:25 -7.09997 112.51153 6148 ft 256 kts 172°
2026-05-08 11:25 -7.11766 112.51354 5947 ft 254 kts 172°
2026-05-08 11:25 -7.13519 112.51553 5740 ft 252 kts 172°
2026-05-08 11:25 -7.15255 112.51749 5544 ft 249 kts 172°
2026-05-08 11:26 -7.16972 112.51944 5358 ft 247 kts 172°
2026-05-08 11:26 -7.18656 112.52135 5164 ft 246 kts 172°
2026-05-08 11:26 -7.20354 112.52328 4983 ft 245 kts 172°
2026-05-08 11:26 -7.22047 112.52520 4796 ft 244 kts 172°
2026-05-08 11:27 -7.23739 112.52713 4611 ft 244 kts 172°
2026-05-08 11:27 -7.25430 112.52905 4422 ft 244 kts 172°
2026-05-08 11:27 -7.27100 112.53094 4259 ft 237 kts 172°
2026-05-08 11:27 -7.28688 112.53274 4059 ft 228 kts 172°
2026-05-08 11:28 -7.30234 112.53449 3875 ft 218 kts 172°
2026-05-08 11:28 -7.31696 112.53614 3718 ft 208 kts 172°
2026-05-08 11:28 -7.33074 112.53924 3541 ft 195 kts 148°
2026-05-08 11:28 -7.33960 112.54866 3510 ft 186 kts 115°
2026-05-08 11:29 -7.34296 112.56108 3517 ft 184 kts 99°
2026-05-08 11:29 -7.34522 112.57371 3496 ft 182 kts 100°
2026-05-08 11:29 -7.34747 112.58632 3472 ft 183 kts 100°
2026-05-08 11:29 -7.34959 112.59910 3272 ft 186 kts 99°
2026-05-08 11:30 -7.35166 112.61185 3037 ft 183 kts 99°
2026-05-08 11:30 -7.35368 112.62439 2810 ft 180 kts 99°
2026-05-08 11:30 -7.35565 112.63667 2588 ft 176 kts 99°
2026-05-08 11:30 -7.35758 112.64868 2364 ft 172 kts 99°
2026-05-08 11:31 -7.35944 112.66024 2149 ft 162 kts 100°
2026-05-08 11:31 -7.36120 112.67120 1966 ft 156 kts 99°
2026-05-08 11:31 -7.36290 112.68174 1763 ft 152 kts 99°
2026-05-08 11:31 -7.36459 112.69222 1563 ft 152 kts 99°
2026-05-08 11:32 -7.36628 112.70280 1367 ft 153 kts 100°
2026-05-08 11:32 -7.36799 112.71339 1163 ft 151 kts 99°
2026-05-08 11:32 -7.36967 112.72378 986 ft 152 kts 99°
2026-05-08 11:32 -7.37101 112.73215 813 ft 153 kts 98°
2026-05-08 11:33 -7.37213 112.73910 707 ft 149 kts 98°
2026-05-08 11:33 -7.37380 112.74951 525 ft 154 kts 99°
2026-05-08 11:33 -7.37550 112.76004 329 ft 152 kts 98°
2026-05-08 11:33 -7.37716 112.77033 118 ft 146 kts 99°
2026-05-08 11:34 -7.37877 112.78020 10 ft 134 kts 98°
2026-05-08 11:34 -7.37992 112.78732 9 ft 71 kts 99°
2026-05-08 11:34 -7.38043 112.79062 10 ft 35 kts 98°
2026-05-08 11:34 -7.38042 112.79235 10 ft 20 kts 77°
2026-05-08 11:35 -7.38014 112.79318 8 ft 11 kts 70°
2026-05-08 11:35 -7.37996 112.79365 8 ft 11 kts 70°
2026-05-08 11:35 -7.37979 112.79398 8 ft 1 kts 38°
2026-05-08 11:35 -7.37969 112.79404 8 ft 3 kts 24°
2026-05-08 11:36 -7.37943 112.79410 8 ft 5 kts 11°
2026-05-08 11:36 -7.37896 112.79418 8 ft 8 kts
2026-05-08 11:36 -7.37840 112.79428 8 ft 8 kts
2026-05-08 11:36 -7.37786 112.79436 10 ft 8 kts
2026-05-08 11:37 -7.37734 112.79444 8 ft 7 kts
2026-05-08 11:37 -7.37688 112.79462 9 ft 7 kts 48°
2026-05-08 11:37 -7.37683 112.79493 8 ft 4 kts 99°
2026-05-08 11:37 -7.37678 112.79516 8 ft 4 kts 43°
2026-05-08 11:38 -7.37652 112.79525 8 ft 4 kts 10°
2026-05-08 11:38 -7.37624 112.79530 8 ft 4 kts
2026-05-08 11:38 -7.37606 112.79533 8 ft 2 kts
2026-05-08 11:38 -7.37602 112.79533 10 ft 0 kts